Weather History for Warrensburg, MO

Change the Weather History Date:

Saturday, March 30, 2013

  Actual Average (KSZL) Record (KSZL)
Temperature  
Mean Temperature 52 °F -  
Max Temperature 59 °F 59 °F 77 °F (1998)
Min Temperature 44 °F 39 °F 28 °F (2003)
Degree Days  
Heating Degree Days 12    
Growing Degree Days 2 (Base 50)    
Moisture  
Dew Point 45 °F    
Average Humidity 81    
Maximum Humidity 94    
Minimum Humidity 62    
Precipitation  
Precipitation 0.03 in - - ()
Sea Level Pressure  
Sea Level Pressure 29.98 in    
Wind  
Wind Speed 7 mph (SE)    
Max Wind Speed 17 mph    
Max Gust Speed 22 mph    
Visibility 9 miles    
Events Fog , Rain , Thunderstorm    
Averages and records for this station are not official NWS values.
T = Trace of Precipitation, MM = Missing Value Source: NWS Daily Summary

Daily Weather History Graph

Daily Weather History Graph

Search for Another Location

Airport:

Trip Planner

Search our weather history database for the weather conditions in past years. The results will help you decide how hot, cold, wet, or windy it might be!

Date:

Astronomy

Mar. 30, 2013 Rise Set
Actual Time 7:02 AM CDT 7:37 PM CDT
Civil Twilight 6:35 AM CDT 8:03 PM CDT
Nautical Twilight 6:04 AM CDT 8:35 PM CDT
Astronomical Twilight 5:32 AM CDT 9:07 PM CDT
Moon 11:41 PM CDT (3/30) 9:00 AM CDT (3/30)
Length of Visible Light 13h 28m
Length of Day
12h 34m
Waning Gibbous, 86% of the Moon is Illuminated
Mar 30
Waning Gibbous
Apr 2
Last Quarter
Apr 10
New
Apr 18
First Quarter
Apr 25
Full

Hourly Weather History & Observations

Time (CDT) Temp. Windchill Dew Point Humidity Pressure Visibility Wind Dir Wind Speed Gust Speed Precip Events Conditions
12:15 AM 48.2 °F - 35.6 °F 62% 30.12 in 10.0 mi ENE 5.8 mph - N/A   Clear
12:35 AM 48.2 °F - 35.6 °F 62% 30.11 in 10.0 mi ENE 5.8 mph - N/A   Clear
12:55 AM 46.4 °F 44.3 °F 35.6 °F 66% 30.10 in 10.0 mi East 4.6 mph - N/A   Clear
1:15 AM 46.4 °F - 35.6 °F 66% 30.11 in 10.0 mi Calm Calm - N/A   Clear
1:35 AM 46.4 °F 43.5 °F 35.6 °F 66% 30.10 in 10.0 mi East 5.8 mph - N/A   Clear
1:55 AM 46.4 °F 42.9 °F 35.6 °F 66% 30.10 in 10.0 mi ESE 6.9 mph - N/A   Clear
2:15 AM 46.4 °F 43.5 °F 35.6 °F 66% 30.11 in 10.0 mi ESE 5.8 mph - N/A   Clear
2:35 AM 46.4 °F 43.5 °F 37.4 °F 71% 30.10 in 10.0 mi ESE 5.8 mph - N/A   Scattered Clouds
2:55 AM 46.4 °F 42.9 °F 37.4 °F 71% 30.10 in 10.0 mi ESE 6.9 mph - N/A   Mostly Cloudy
3:15 AM 46.4 °F 42.9 °F 37.4 °F 71% 30.08 in 10.0 mi ESE 6.9 mph - N/A   Scattered Clouds
3:35 AM 46.4 °F 42.4 °F 37.4 °F 71% 30.07 in 10.0 mi ESE 8.1 mph - N/A   Clear
3:55 AM 46.4 °F 44.3 °F 37.4 °F 71% 30.06 in 10.0 mi ESE 4.6 mph - N/A   Scattered Clouds
4:15 AM 46.4 °F 43.5 °F 37.4 °F 71% 30.06 in 10.0 mi SE 5.8 mph - N/A   Clear
4:35 AM 46.4 °F 43.5 °F 41.0 °F 81% 30.05 in 10.0 mi East 5.8 mph - N/A   Clear
4:55 AM 50.0 °F - 41.0 °F 71% 30.05 in 10.0 mi ESE 6.9 mph - N/A   Clear
5:15 AM 50.0 °F - 42.8 °F 76% 30.04 in 10.0 mi ESE 5.8 mph - N/A   Mostly Cloudy
5:35 AM 50.0 °F - 42.8 °F 76% 30.03 in 10.0 mi ESE 6.9 mph - N/A   Overcast
5:55 AM 50.0 °F - 42.8 °F 76% 30.02 in 10.0 mi SE 10.4 mph - N/A   Overcast
6:15 AM 50.0 °F - 44.6 °F 82% 30.02 in 10.0 mi SE 10.4 mph - N/A   Overcast
6:35 AM 50.0 °F - 44.6 °F 82% 30.01 in 10.0 mi SE 11.5 mph - N/A   Scattered Clouds
6:55 AM 50.0 °F - 44.6 °F 82% 30.01 in 10.0 mi SE 9.2 mph - N/A Thunderstorm Scattered Clouds
7:15 AM 50.0 °F - 44.6 °F 82% 30.01 in 10.0 mi SE 9.2 mph - N/A Thunderstorm Mostly Cloudy
7:35 AM 51.8 °F - 44.6 °F 76% 30.01 in 10.0 mi SE 12.7 mph - N/A   Overcast
7:55 AM 51.8 °F - 44.6 °F 76% 30.01 in 10.0 mi SSE 13.8 mph 17.3 mph N/A Thunderstorm Thunderstorm
8:15 AM 50.0 °F - 44.6 °F 82% 30.00 in 10.0 mi SSE 13.8 mph 19.6 mph N/A Rain Light Rain
8:35 AM 50.0 °F - 44.6 °F 82% 30.00 in 10.0 mi SE 13.8 mph - N/A Rain , Thunderstorm Light Thunderstorms and Rain
8:55 AM 50.0 °F - 44.6 °F 82% 29.98 in 10.0 mi SSE 16.1 mph - 0.02 in Rain Light Rain
9:15 AM 50.0 °F - 46.4 °F 87% 29.98 in 10.0 mi SE 13.8 mph 21.9 mph N/A Rain Light Rain
9:35 AM 50.0 °F - 46.4 °F 87% 29.98 in 10.0 mi SE 15.0 mph - N/A   Overcast
9:55 AM 50.0 °F - 46.4 °F 87% 29.98 in 10.0 mi SE 13.8 mph - N/A   Mostly Cloudy
10:15 AM 51.8 °F - 46.4 °F 82% 29.98 in 10.0 mi SE 15.0 mph - N/A   Overcast
10:35 AM 51.8 °F - 46.4 °F 82% 29.97 in 10.0 mi SE 17.3 mph - N/A   Overcast
10:55 AM 51.8 °F - 46.4 °F 82% 29.97 in 10.0 mi SE 13.8 mph 18.4 mph N/A   Overcast
11:15 AM 50.0 °F - 46.4 °F 87% 29.97 in 10.0 mi SE 11.5 mph - N/A   Drizzle
11:35 AM 50.0 °F - 46.4 °F 87% 29.98 in 10.0 mi SE 8.1 mph - 0.01 in   Drizzle
11:55 AM 51.8 °F - 48.2 °F 88% 29.98 in 10.0 mi SE 6.9 mph - 0.01 in   Light Drizzle
12:15 PM 51.8 °F - 46.4 °F 82% 29.98 in 10.0 mi SE 8.1 mph - N/A   Overcast
12:35 PM 51.8 °F - 48.2 °F 88% 29.98 in 10.0 mi SE 8.1 mph - N/A   Overcast
12:55 PM 51.8 °F - 48.2 °F 88% 29.98 in 10.0 mi SSE 5.8 mph - N/A   Overcast
1:15 PM 51.8 °F - 48.2 °F 88% 29.97 in 10.0 mi SSE 10.4 mph - N/A   Overcast
1:35 PM 51.8 °F - 48.2 °F 88% 29.96 in 10.0 mi SE 9.2 mph - N/A   Overcast
1:55 PM 53.6 °F - 50.0 °F 88% 29.95 in 10.0 mi SSE 9.2 mph - N/A   Overcast
2:15 PM 53.6 °F - 50.0 °F 88% 29.95 in 10.0 mi SSE 9.2 mph - N/A   Overcast
2:35 PM 53.6 °F - 50.0 °F 88% 29.94 in 10.0 mi South 10.4 mph - N/A   Overcast
2:55 PM 53.6 °F - 50.0 °F 88% 29.92 in 10.0 mi South 8.1 mph - N/A   Overcast
3:15 PM 55.4 °F - 50.0 °F 82% 29.91 in 10.0 mi SSE 9.2 mph - N/A   Overcast
3:35 PM 55.4 °F - 51.8 °F 88% 29.90 in 10.0 mi SSE 9.2 mph - N/A   Overcast
3:55 PM 57.2 °F - 50.0 °F 77% 29.90 in 10.0 mi SSE 8.1 mph - N/A   Overcast
4:15 PM 57.2 °F - 51.8 °F 82% 29.89 in 10.0 mi South 4.6 mph - N/A   Overcast
4:35 PM 59.0 °F - 51.8 °F 77% 29.89 in 10.0 mi SSE 4.6 mph - N/A   Overcast
4:55 PM 59.0 °F - 51.8 °F 77% 29.89 in 10.0 mi SSE 4.6 mph - N/A   Overcast
5:15 PM 59.0 °F - 51.8 °F 77% 29.88 in 10.0 mi SE 3.5 mph - N/A   Overcast
5:35 PM 59.0 °F - 51.8 °F 77% 29.88 in 10.0 mi ESE 5.8 mph - N/A   Mostly Cloudy
6:15 PM 59.0 °F - 51.8 °F 77% 29.88 in 10.0 mi Calm Calm - N/A   Overcast
6:55 PM 57.2 °F - 50.0 °F 77% 29.88 in 10.0 mi NE 3.5 mph - N/A   Scattered Clouds
7:15 PM 55.4 °F - 50.0 °F 82% 29.88 in 10.0 mi ENE 3.5 mph - N/A   Scattered Clouds
7:35 PM 55.4 °F - 50.0 °F 82% 29.89 in 10.0 mi Calm Calm - N/A   Clear
7:55 PM 53.6 °F - 50.0 °F 88% 29.90 in 10.0 mi East 4.6 mph - N/A   Clear
8:15 PM 53.6 °F - 50.0 °F 88% 29.90 in 10.0 mi ESE 5.8 mph - N/A   Clear
8:35 PM 53.6 °F - 50.0 °F 88% 29.90 in 10.0 mi SE 3.5 mph - N/A   Clear
8:55 PM 51.8 °F - 50.0 °F 94% 29.91 in 10.0 mi SSE 3.5 mph - N/A   Clear
9:15 PM 51.8 °F - 50.0 °F 94% 29.91 in 10.0 mi South 4.6 mph - N/A   Clear
9:35 PM 50.0 °F - 46.4 °F 87% 29.91 in 7.0 mi Calm Calm - N/A   Clear
9:55 PM 50.0 °F - 46.4 °F 87% 29.91 in 5.0 mi Calm Calm - N/A   Mostly Cloudy
10:15 PM 50.0 °F - 48.2 °F 94% 29.91 in 5.0 mi Calm Calm - N/A   Scattered Clouds
10:35 PM 50.0 °F - 48.2 °F 94% 29.91 in 1.2 mi Calm Calm - N/A   Mist
10:55 PM 48.2 °F - 46.4 °F 93% 29.91 in 0.5 mi Calm Calm - N/A Fog Fog
11:15 PM 46.4 °F - 44.6 °F 93% 29.91 in 0.2 mi Calm Calm - N/A Fog Fog
11:35 PM 46.4 °F 45.2 °F 44.6 °F 93% 29.92 in 0.2 mi North 3.5 mph - N/A Fog Fog
11:55 PM 44.6 °F - 42.8 °F 93% 29.92 in 0.5 mi Calm Calm - N/A Fog Fog